Change the Weather History Date:

Friday, October 7, 2011

  Actual Average (KCRP) Record (KCRP)
Temperature  
Mean Temperature 84 °F 77 °F  
Max Temperature 87 °F 86 °F 94 °F (1990)
Min Temperature 82 °F 67 °F 48 °F (1964)
Degree Days  
Heating Degree Days 0 0  
Month to date heating degree days 0  
Since 1 July heating degree days 0  
Cooling Degree Days 20 12  
Month to date cooling degree days 87  
Year to date cooling degree days 3130  
Growing Degree Days 34 (Base 50)    
Moisture  
Dew Point 75 °F    
Average Humidity 76    
Maximum Humidity 84    
Minimum Humidity 66    
Precipitation  
Precipitation 0.00 in 0.12 in 2.43 in (1984)
Month to date precipitation 0.85  
Year to date precipitation 25.17  
Snow  
Snow 0.00 in - - ()
Month to date snowfall  
Since 1 July snowfall  
Since 1 September snowfall  
Snow Depth -    
Sea Level Pressure  
Sea Level Pressure 29.98 in    
Wind  
Wind Speed 14 mph (SE)    
Max Wind Speed 18 mph    
Max Gust Speed 23 mph    
Visibility 9 miles    
Events      
T = Trace of Precipitation, MM = Missing Value Source: NWS Daily Summary

Daily Weather History Graph

Daily Weather History Graph

Search for Another Location

Airport or City:

Trip Planner

Search our weather history database for the weather conditions in past years. The results will help you decide how hot, cold, wet, or windy it might be!

Date:

Astronomy

Oct. 07, 2011 Rise Set
Actual Time 7:24 AM CDT 7:07 PM CDT
Civil Twilight 7:00 AM CDT 7:31 PM CDT
Nautical Twilight 6:33 AM CDT 7:58 PM CDT
Astronomical Twilight 6:06 AM CDT 8:25 PM CDT
Moon 4:35 PM CDT (10/7) 3:33 AM CDT (10/7)
Length of Visible Light 12h 30m
Length of Day
11h 43m
Waxing Gibbous, 83% of the Moon is Illuminated
Oct 7
Waxing Gibbous
Oct 11
Full
Oct 19
Last Quarter
Oct 26
New
Nov 2
First Quarter

Hourly Weather History & Observations

Time (CDT) Temp. Heat Index Dew Point Humidity Pressure Visibility Wind Dir Wind Speed Gust Speed Precip Events Conditions
12:15 AM 82.4 °F 89.5 °F 75.2 °F 79% 29.98 in 10.0 mi SE 16.1 mph - N/A   Partly Cloudy
12:35 AM 82.4 °F 89.5 °F 75.2 °F 79% 29.98 in 10.0 mi SE 13.8 mph 19.6 mph N/A   Clear
12:55 AM 82.4 °F 89.5 °F 75.2 °F 79% 29.98 in 10.0 mi SE 13.8 mph 19.6 mph N/A   Clear
1:15 AM 82.4 °F 90.9 °F 77.0 °F 84% 29.97 in 10.0 mi SE 16.1 mph 20.7 mph N/A   Clear
1:35 AM 82.4 °F 89.5 °F 75.2 °F 79% 29.97 in 10.0 mi SE 16.1 mph - N/A   Clear
1:55 AM 82.4 °F 90.9 °F 77.0 °F 84% 29.97 in 10.0 mi SE 15.0 mph 21.9 mph N/A   Clear
2:15 AM 82.4 °F 90.9 °F 77.0 °F 84% 29.97 in 9.0 mi SE 13.8 mph 19.6 mph N/A   Clear
2:35 AM 82.4 °F 89.5 °F 75.2 °F 79% 29.97 in 9.0 mi SE 15.0 mph - N/A   Partly Cloudy
2:55 AM 82.4 °F 90.9 °F 77.0 °F 84% 29.97 in 10.0 mi SE 13.8 mph - N/A   Clear
3:15 AM 82.4 °F 89.5 °F 75.2 °F 79% 29.97 in 10.0 mi SE 13.8 mph - N/A   Partly Cloudy
3:35 AM 82.4 °F 89.5 °F 75.2 °F 79% 29.97 in 9.0 mi SE 16.1 mph 19.6 mph N/A   Partly Cloudy
3:55 AM 82.4 °F 89.5 °F 75.2 °F 79% 29.96 in 10.0 mi SE 13.8 mph - N/A   Clear
4:15 AM 82.4 °F 89.5 °F 75.2 °F 79% 29.96 in 10.0 mi SE 16.1 mph 23.0 mph N/A   Clear
4:35 AM 82.4 °F 89.5 °F 75.2 °F 79% 29.96 in 9.0 mi SSE 15.0 mph - N/A   Clear
4:55 AM 82.4 °F 89.5 °F 75.2 °F 79% 29.96 in 10.0 mi SSE 13.8 mph 21.9 mph N/A   Clear
5:15 AM 82.4 °F 89.5 °F 75.2 °F 79% 29.96 in 10.0 mi SSE 15.0 mph 20.7 mph N/A   Clear
5:35 AM 82.4 °F 89.5 °F 75.2 °F 79% 29.96 in 10.0 mi SSE 13.8 mph 20.7 mph N/A   Clear
5:55 AM 82.4 °F 90.9 °F 77.0 °F 84% 29.96 in 8.0 mi SE 13.8 mph - N/A   Clear
6:15 AM 82.4 °F 89.5 °F 75.2 °F 79% 29.97 in 8.0 mi SSE 13.8 mph - N/A   Clear
6:35 AM 82.4 °F 89.5 °F 75.2 °F 79% 29.97 in 8.0 mi SE 12.7 mph - N/A   Clear
6:55 AM 82.4 °F 89.5 °F 75.2 °F 79% 29.97 in 8.0 mi SSE 11.5 mph - N/A   Clear
7:15 AM 82.4 °F 90.9 °F 77.0 °F 84% 29.98 in 7.0 mi SE 12.7 mph - N/A   Clear
7:35 AM 82.4 °F 90.9 °F 77.0 °F 84% 29.98 in 7.0 mi SE 11.5 mph - N/A   Clear
7:55 AM 82.4 °F 90.9 °F 77.0 °F 84% 29.98 in 5.0 mi SSE 11.5 mph - N/A   Haze
8:15 AM 82.4 °F 89.5 °F 75.2 °F 79% 29.99 in 7.0 mi SE 16.1 mph 20.7 mph N/A   Clear
8:35 AM 84.2 °F 92.3 °F 75.2 °F 74% 29.99 in 7.0 mi SE 13.8 mph - N/A   Clear
8:55 AM 84.2 °F 92.3 °F 75.2 °F 74% 30.00 in 8.0 mi SE 13.8 mph - N/A   Clear
9:15 AM 84.2 °F 92.3 °F 75.2 °F 74% 30.00 in 8.0 mi SE 13.8 mph 17.3 mph N/A   Clear
9:35 AM 84.2 °F 92.3 °F 75.2 °F 74% 30.01 in 9.0 mi SE 13.8 mph - N/A   Clear
10:15 AM 86.0 °F 95.1 °F 75.2 °F 70% 30.02 in 9.0 mi SE 13.8 mph 21.9 mph N/A   Clear
10:35 AM 87.8 °F 97.6 °F 75.2 °F 66% 30.03 in 8.0 mi SE 16.1 mph - N/A   Clear
10:55 AM 86.0 °F 95.1 °F 75.2 °F 70% 30.03 in 9.0 mi SE 16.1 mph - N/A   Clear
11:15 AM 87.8 °F 97.6 °F 75.2 °F 66% 30.03 in 9.0 mi SE 12.7 mph - N/A   Clear
11:35 AM 87.8 °F 97.6 °F 75.2 °F 66% 30.03 in 9.0 mi SE 12.7 mph - N/A   Clear
11:55 AM 87.8 °F 97.6 °F 75.2 °F 66% 30.03 in 9.0 mi SE 10.4 mph - N/A   Clear
12:15 PM 87.8 °F 97.6 °F 75.2 °F 66% 30.02 in 10.0 mi SE 15.0 mph - N/A   Clear
12:35 PM 87.8 °F 97.6 °F 75.2 °F 66% 30.02 in 10.0 mi SE 15.0 mph - N/A   Clear
12:55 PM 87.8 °F 97.6 °F 75.2 °F 66% 30.02 in 10.0 mi SE 13.8 mph - N/A   Clear
1:15 PM 87.8 °F 97.6 °F 75.2 °F 66% 30.01 in 10.0 mi SE 13.8 mph 18.4 mph N/A   Clear
1:35 PM 87.8 °F 97.6 °F 75.2 °F 66% 30.00 in 10.0 mi SE 11.5 mph - N/A   Clear
2:35 PM 87.8 °F 99.7 °F 77.0 °F 70% 29.98 in 9.0 mi ESE 13.8 mph - N/A   Partly Cloudy
2:55 PM 87.8 °F 97.6 °F 75.2 °F 66% 29.98 in 8.0 mi ESE 15.0 mph - N/A   Partly Cloudy
3:15 PM 87.8 °F 97.6 °F 75.2 °F 66% 29.98 in 9.0 mi ESE 16.1 mph 21.9 mph N/A   Clear
3:35 PM 86.0 °F 95.1 °F 75.2 °F 70% 29.97 in 7.0 mi ESE 15.0 mph 19.6 mph N/A   Partly Cloudy
3:55 PM 86.0 °F 95.1 °F 75.2 °F 70% 29.97 in 9.0 mi ESE 18.4 mph 21.9 mph N/A   Partly Cloudy
4:15 PM 86.0 °F 95.1 °F 75.2 °F 70% 29.97 in 9.0 mi ESE 10.4 mph - N/A   Partly Cloudy
4:35 PM 84.2 °F 92.3 °F 75.2 °F 74% 29.97 in 8.0 mi ESE 13.8 mph 23.0 mph N/A   Scattered Clouds
4:55 PM 84.2 °F 92.3 °F 75.2 °F 74% 29.98 in 6.0 mi East 17.3 mph - N/A   Haze
5:15 PM 84.2 °F 92.3 °F 75.2 °F 74% 29.97 in 7.0 mi SE 13.8 mph 19.6 mph N/A   Partly Cloudy
5:35 PM 82.4 °F 89.5 °F 75.2 °F 79% 29.97 in 7.0 mi SE 10.4 mph - N/A   Partly Cloudy
5:55 PM 84.2 °F 92.3 °F 75.2 °F 74% 29.96 in 9.0 mi ESE 9.2 mph - N/A   Clear
6:15 PM 84.2 °F 94.1 °F 77.0 °F 79% 29.97 in 7.0 mi ESE 10.4 mph - N/A   Clear
6:35 PM 84.2 °F 92.3 °F 75.2 °F 74% 29.98 in 9.0 mi ESE 12.7 mph 18.4 mph N/A   Clear
6:55 PM 82.4 °F 89.5 °F 75.2 °F 79% 29.98 in 9.0 mi ESE 13.8 mph - N/A   Clear
7:15 PM 82.4 °F 89.5 °F 75.2 °F 79% 29.97 in 9.0 mi East 15.0 mph - N/A   Clear
7:35 PM 82.4 °F 89.5 °F 75.2 °F 79% 29.98 in 10.0 mi ESE 13.8 mph 18.4 mph N/A   Partly Cloudy
7:55 PM 82.4 °F 89.5 °F 75.2 °F 79% 29.98 in 10.0 mi ESE 12.7 mph 19.6 mph N/A   Partly Cloudy
8:15 PM 82.4 °F 89.5 °F 75.2 °F 79% 29.99 in 10.0 mi ESE 13.8 mph - N/A   Clear
8:35 PM 82.4 °F 89.5 °F 75.2 °F 79% 29.99 in 10.0 mi ESE 13.8 mph - N/A   Clear
8:55 PM 82.4 °F 89.5 °F 75.2 °F 79% 30.00 in 10.0 mi ESE 11.5 mph 17.3 mph N/A   Clear
9:35 PM 82.4 °F 89.5 °F 75.2 °F 79% 30.01 in 10.0 mi ESE 12.7 mph 19.6 mph N/A   Partly Cloudy
9:55 PM 82.4 °F 89.5 °F 75.2 °F 79% 30.01 in 10.0 mi ESE 13.8 mph 19.6 mph N/A   Clear
10:15 PM 82.4 °F 89.5 °F 75.2 °F 79% 30.00 in 9.0 mi East 15.0 mph 19.6 mph N/A   Clear
10:35 PM 82.4 °F 88.2 °F 73.4 °F 74% 30.00 in 10.0 mi ESE 15.0 mph 18.4 mph N/A   Clear
10:55 PM 82.4 °F 89.5 °F 75.2 °F 79% 30.01 in 9.0 mi SE 11.5 mph 20.7 mph N/A   Clear
11:15 PM 82.4 °F 89.5 °F 75.2 °F 79% 30.01 in 10.0 mi ESE 17.3 mph 20.7 mph N/A   Clear
11:55 PM 82.4 °F 89.5 °F 75.2 °F 79% 30.00 in 10.0 mi ESE 17.3 mph 23.0 mph N/A   Clear